Homer, AK

7:33 PM AKST on November 19, 2017 (GMT -0900)
Homer

Weather History for PAHO - September, 2012

Change the Weather History Date:

Sunday, September 30, 2012

  Actual Average Record
Temperature  
Mean Temperature 35 °F -  
Max Temperature 45 °F 50 °F 62 °F (2003)
Min Temperature 26 °F 37 °F 26 °F (1951)
Degree Days  
Heating Degree Days 30    
Moisture  
Dew Point 27 °F    
Average Humidity 69    
Maximum Humidity 81    
Minimum Humidity 53    
Precipitation  
Precipitation 0.00 in - - ()
Sea Level Pressure  
Sea Level Pressure 30.01 in    
Wind  
Wind Speed 1 mph (East)    
Max Wind Speed 9 mph    
Max Gust Speed -    
Visibility 10 miles    
Events      
Averages and records for this station are not official NWS values.
T = Trace of Precipitation, MM = Missing Value Source: NWS Daily Summary

Daily Weather History Graph

Daily Weather History Graph

Search for Another Location

Airport or City:

Trip Planner

Search our weather history database for the weather conditions in past years. The results will help you decide how hot, cold, wet, or windy it might be!

Date:

Astronomy

Sep. 30, 2012 Rise Set
Actual Time 8:10 AM AKDT 7:39 PM AKDT
Civil Twilight 7:29 AM AKDT 8:20 PM AKDT
Nautical Twilight 6:41 AM AKDT 9:08 PM AKDT
Astronomical Twilight 5:50 AM AKDT 9:58 PM AKDT
Moon 7:19 PM AKDT (9/30) 9:15 AM AKDT (9/30)
Length of Visible Light 12h 50m
Length of Day
11h 28m
Full, 100% of the Moon is Illuminated
Sep 30
Full
Oct 7
Last Quarter
Oct 15
New
Oct 21
First Quarter
Oct 29
Full

Hourly Weather History & Observations

Time (AKDT) Temp. Windchill Dew Point Humidity Pressure Visibility Wind Dir Wind Speed Gust Speed Precip Events Conditions
12:53 AM 33.1 °F - 24.1 °F 70% 29.88 in 10.0 mi Calm Calm - N/A   Clear
1:53 AM 30.9 °F - 24.1 °F 76% 29.90 in 10.0 mi Calm Calm - N/A   Clear
2:53 AM 30.0 °F - 24.1 °F 79% 29.91 in 10.0 mi Calm Calm - N/A   Clear
3:53 AM 30.9 °F - 23.0 °F 72% 29.93 in 10.0 mi Calm Calm - N/A   Clear
4:53 AM 30.9 °F - 23.0 °F 72% 29.94 in 10.0 mi Calm Calm - N/A   Clear
5:53 AM 28.9 °F - 23.0 °F 78% 29.95 in 10.0 mi Calm Calm - N/A   Clear
6:53 AM 28.0 °F - 21.0 °F 75% 29.97 in 10.0 mi Calm Calm - N/A   Clear
7:53 AM 26.1 °F - 21.0 °F 81% 29.98 in 10.0 mi Calm Calm - N/A   Clear
8:53 AM 28.0 °F - 23.0 °F 81% 29.99 in 10.0 mi Calm Calm - N/A   Clear
9:53 AM 35.1 °F - 26.1 °F 70% 30.01 in 10.0 mi Calm Calm - N/A   Clear
10:53 AM 39.0 °F 34.8 °F 28.9 °F 67% 30.02 in 10.0 mi NE 5.8 mph - N/A   Clear
11:53 AM 39.9 °F 33.9 °F 28.9 °F 65% 30.03 in 10.0 mi East 9.2 mph - N/A   Clear
12:53 PM 42.1 °F 37.7 °F 30.9 °F 65% 30.03 in 10.0 mi East 6.9 mph - N/A   Clear
1:53 PM 43.0 °F 40.3 °F 30.0 °F 60% 30.03 in 10.0 mi East 4.6 mph - N/A   Clear
2:53 PM 44.1 °F 42.5 °F 28.0 °F 53% 30.03 in 10.0 mi SE 3.5 mph - N/A   Clear
3:53 PM 43.0 °F - 28.0 °F 56% 30.03 in 10.0 mi Calm Calm - N/A   Clear
4:53 PM 44.1 °F - 28.9 °F 55% 30.03 in 10.0 mi Calm Calm - N/A   Clear
5:53 PM 44.1 °F - 28.9 °F 55% 30.03 in 10.0 mi Calm Calm - N/A   Clear
6:53 PM 44.1 °F - 28.9 °F 55% 30.04 in 10.0 mi Calm Calm - N/A   Scattered Clouds
7:53 PM 39.9 °F - 30.0 °F 68% 30.05 in 10.0 mi Calm Calm - N/A   Clear
8:53 PM 35.1 °F - 28.0 °F 76% 30.06 in 10.0 mi Calm Calm - N/A   Clear
9:53 PM 36.0 °F - 28.9 °F 76% 30.08 in 10.0 mi Calm Calm - N/A   Overcast
10:53 PM 37.0 °F - 28.9 °F 73% 30.09 in 10.0 mi Calm Calm - N/A   Overcast
11:53 PM 36.0 °F - 30.0 °F 79% 30.12 in 10.0 mi Calm Calm - N/A   Overcast